contact:dominique.lefevre@mio.osupytheas.fr, maurice.libes@osupytheas.fr, didier.mallarino@osupytheas.fr
Project:EMSO http://www.emso-fr.org/EMSO-France
Depth: 2436.0 m
Title:EMSO Ligure Ouest : Data MII capteur MICROCAT
DateTime_Computer,Latitude,Longitude,Temperature,Conductivity,Pressure,DateTime_Instrument
DateTime_Computer,Latitude,Longitude,degC,S m-1,dbar,DateTime_Instrument
2017-11-12T00:01:13Z,42.805,6.029,13.2951,4.59972,2472.002,2017-11-12T02:02:40Z
2017-11-12T00:04:15Z,42.805,6.029,13.2940,4.59961,2471.987,2017-11-12T02:05:42Z
2017-11-12T00:07:18Z,42.805,6.029,13.2942,4.59960,2472.002,2017-11-12T02:08:45Z
2017-11-12T00:10:21Z,42.805,6.029,13.2948,4.59958,2471.987,2017-11-12T02:11:48Z
2017-11-12T00:13:24Z,42.805,6.029,13.2946,4.59975,2472.024,2017-11-12T02:14:51Z
2017-11-12T00:16:27Z,42.805,6.029,13.2952,4.59981,2471.979,2017-11-12T02:17:54Z
2017-11-12T00:19:30Z,42.805,6.029,13.2940,4.59975,2471.979,2017-11-12T02:20:57Z
2017-11-12T00:22:33Z,42.805,6.029,13.2941,4.59967,2471.987,2017-11-12T02:24:00Z
2017-11-12T00:25:36Z,42.805,6.029,13.2953,4.60002,2472.024,2017-11-12T02:27:03Z
2017-11-12T00:28:39Z,42.805,6.029,13.2945,4.59963,2472.01,2017-11-12T02:30:06Z
2017-11-12T00:31:41Z,42.805,6.029,13.2938,4.59960,2472.047,2017-11-12T02:33:09Z
2017-11-12T00:34:44Z,42.805,6.029,13.2935,4.59959,2471.979,2017-11-12T02:36:11Z
2017-11-12T00:37:47Z,42.805,6.029,13.2943,4.59975,2472.002,2017-11-12T02:39:14Z
2017-11-12T00:40:50Z,42.805,6.029,13.2939,4.59958,2472.002,2017-11-12T02:42:17Z
2017-11-12T00:43:53Z,42.805,6.029,13.2943,4.59959,2472.002,2017-11-12T02:45:20Z
2017-11-12T00:46:56Z,42.805,6.029,13.2939,4.59961,2472.002,2017-11-12T02:48:23Z
2017-11-12T00:49:59Z,42.805,6.029,13.2949,4.59964,2471.964,2017-11-12T02:51:26Z
2017-11-12T00:53:02Z,42.805,6.029,13.2949,4.59978,2472.002,2017-11-12T02:54:29Z
2017-11-12T00:56:05Z,42.805,6.029,13.2955,4.59967,2472.024,2017-11-12T02:57:32Z
2017-11-12T00:59:08Z,42.805,6.029,13.2943,4.59975,2472.002,2017-11-12T03:00:35Z
2017-11-12T01:02:10Z,42.805,6.029,13.2951,4.59992,2472.002,2017-11-12T03:03:37Z
2017-11-12T01:05:13Z,42.805,6.029,13.2943,4.59991,2472.01,2017-11-12T03:06:40Z
2017-11-12T01:08:16Z,42.805,6.029,13.2935,4.59959,2472.002,2017-11-12T03:09:43Z
2017-11-12T01:11:19Z,42.805,6.029,13.2942,4.59961,2472.002,2017-11-12T03:12:46Z
2017-11-12T01:14:22Z,42.805,6.029,13.2954,4.59965,2472.024,2017-11-12T03:15:49Z
2017-11-12T01:17:25Z,42.805,6.029,13.2940,4.59958,2471.979,2017-11-12T03:18:52Z
2017-11-12T01:20:28Z,42.805,6.029,13.2939,4.59962,2472.024,2017-11-12T03:21:55Z
2017-11-12T01:23:31Z,42.805,6.029,13.2951,4.59978,2472.024,2017-11-12T03:24:58Z
2017-11-12T01:26:34Z,42.805,6.029,13.2937,4.59958,2472.024,2017-11-12T03:28:01Z
2017-11-12T01:29:36Z,42.805,6.029,13.2938,4.59958,2472.024,2017-11-12T03:31:03Z
2017-11-12T01:32:39Z,42.805,6.029,13.2939,4.59964,2472.01,2017-11-12T03:34:06Z
2017-11-12T01:35:42Z,42.805,6.029,13.2935,4.59959,2472.024,2017-11-12T03:37:09Z
2017-11-12T01:38:45Z,42.805,6.029,13.2938,4.59957,2472.024,2017-11-12T03:40:12Z
2017-11-12T01:41:48Z,42.805,6.029,13.2938,4.59959,2472.024,2017-11-12T03:43:15Z
2017-11-12T01:44:51Z,42.805,6.029,13.2935,4.59958,2472.002,2017-11-12T03:46:18Z
2017-11-12T01:47:54Z,42.805,6.029,13.2940,4.59962,2472.024,2017-11-12T03:49:21Z
2017-11-12T01:50:57Z,42.805,6.029,13.2939,4.59961,2472.062,2017-11-12T03:52:24Z
2017-11-12T01:54:00Z,42.805,6.029,13.2939,4.59960,2472.047,2017-11-12T03:55:27Z
2017-11-12T01:57:02Z,42.805,6.029,13.2943,4.59975,2472.024,2017-11-12T03:58:30Z
2017-11-12T02:00:05Z,42.805,6.029,13.2938,4.59967,2472.024,2017-11-12T04:01:32Z
2017-11-12T02:03:08Z,42.805,6.029,13.2935,4.59958,2472.002,2017-11-12T04:04:35Z
2017-11-12T02:06:11Z,42.805,6.029,13.2935,4.59956,2472.039,2017-11-12T04:07:38Z
2017-11-12T02:09:14Z,42.805,6.029,13.2937,4.59957,2472.002,2017-11-12T04:10:41Z
2017-11-12T02:12:17Z,42.805,6.029,13.2938,4.59957,2472.01,2017-11-12T04:13:44Z
2017-11-12T02:15:20Z,42.805,6.029,13.2940,4.59957,2472.01,2017-11-12T04:16:47Z
2017-11-12T02:18:23Z,42.805,6.029,13.2938,4.59958,2472.002,2017-11-12T04:19:50Z
2017-11-12T02:21:26Z,42.805,6.029,13.2938,4.59961,2472.024,2017-11-12T04:22:53Z
2017-11-12T02:24:29Z,42.805,6.029,13.2940,4.59957,2472.047,2017-11-12T04:25:56Z
2017-11-12T02:27:31Z,42.805,6.029,13.2935,4.59957,2471.987,2017-11-12T04:28:58Z
2017-11-12T02:30:34Z,42.805,6.029,13.2935,4.59956,2471.987,2017-11-12T04:32:01Z
2017-11-12T02:33:37Z,42.805,6.029,13.2937,4.59957,2472.01,2017-11-12T04:35:04Z
2017-11-12T02:36:40Z,42.805,6.029,13.2940,4.59957,2472.01,2017-11-12T04:38:07Z
2017-11-12T02:39:43Z,42.805,6.029,13.2938,4.59957,2472.002,2017-11-12T04:41:10Z
2017-11-12T02:42:46Z,42.805,6.029,13.2940,4.59957,2472.002,2017-11-12T04:44:13Z
2017-11-12T02:45:49Z,42.805,6.029,13.2938,4.59957,2472.002,2017-11-12T04:47:16Z
2017-11-12T02:48:52Z,42.805,6.029,13.2939,4.59958,2472.024,2017-11-12T04:50:19Z
2017-11-12T02:51:55Z,42.805,6.029,13.2937,4.59956,2471.979,2017-11-12T04:53:22Z
2017-11-12T02:54:57Z,42.805,6.029,13.2942,4.59957,2472.024,2017-11-12T04:56:24Z
2017-11-12T02:58:00Z,42.805,6.029,13.2939,4.59956,2471.987,2017-11-12T04:59:27Z
2017-11-12T03:01:03Z,42.805,6.029,13.2935,4.59956,2471.987,2017-11-12T05:02:30Z
2017-11-12T03:04:06Z,42.805,6.029,13.2938,4.59956,2472.024,2017-11-12T05:05:33Z
2017-11-12T03:07:09Z,42.805,6.029,13.2937,4.59956,2472.024,2017-11-12T05:08:36Z
2017-11-12T03:10:12Z,42.805,6.029,13.2939,4.59957,2472.002,2017-11-12T05:11:39Z
2017-11-12T03:13:15Z,42.805,6.029,13.2940,4.59956,2472.002,2017-11-12T05:14:42Z
2017-11-12T03:16:18Z,42.805,6.029,13.2936,4.59957,2472.002,2017-11-12T05:17:45Z
2017-11-12T03:19:21Z,42.805,6.029,13.2937,4.59958,2472.024,2017-11-12T05:20:48Z
2017-11-12T03:22:23Z,42.805,6.029,13.2939,4.59956,2472.002,2017-11-12T05:23:50Z
2017-11-12T03:25:26Z,42.805,6.029,13.2940,4.59956,2472.002,2017-11-12T05:26:53Z
2017-11-12T03:28:29Z,42.805,6.029,13.2939,4.59957,2472.002,2017-11-12T05:29:56Z
2017-11-12T03:31:32Z,42.805,6.029,13.2939,4.59957,2471.987,2017-11-12T05:32:59Z
2017-11-12T03:34:35Z,42.805,6.029,13.2939,4.59956,2471.979,2017-11-12T05:36:02Z
2017-11-12T03:37:38Z,42.805,6.029,13.2935,4.59956,2472.01,2017-11-12T05:39:05Z
2017-11-12T03:40:41Z,42.805,6.029,13.2939,4.59957,2472.024,2017-11-12T05:42:08Z
2017-11-12T03:43:44Z,42.805,6.029,13.2937,4.59956,2472.024,2017-11-12T05:45:11Z
2017-11-12T03:46:47Z,42.805,6.029,13.2939,4.59958,2472.002,2017-11-12T05:48:14Z
2017-11-12T03:49:50Z,42.805,6.029,13.2936,4.59956,2472.016,2017-11-12T05:51:17Z
2017-11-12T03:52:52Z,42.805,6.029,13.2943,4.59958,2472.002,2017-11-12T05:54:19Z
2017-11-12T03:55:55Z,42.805,6.029,13.2940,4.59957,2472.002,2017-11-12T05:57:22Z
2017-11-12T03:58:58Z,42.805,6.029,13.2934,4.59957,2471.987,2017-11-12T06:00:25Z
2017-11-12T04:02:01Z,42.805,6.029,13.2940,4.59958,2472.002,2017-11-12T06:03:28Z
2017-11-12T04:05:04Z,42.805,6.029,13.2932,4.59958,2472.002,2017-11-12T06:06:31Z
2017-11-12T04:08:07Z,42.805,6.029,13.2932,4.59957,2471.979,2017-11-12T06:09:34Z
2017-11-12T04:11:10Z,42.805,6.029,13.2940,4.59956,2472.024,2017-11-12T06:12:37Z
2017-11-12T04:14:13Z,42.805,6.029,13.2940,4.59958,2471.979,2017-11-12T06:15:40Z
2017-11-12T04:17:16Z,42.805,6.029,13.2934,4.59957,2471.987,2017-11-12T06:18:43Z
2017-11-12T04:20:18Z,42.805,6.029,13.2939,4.59958,2471.987,2017-11-12T06:21:45Z
2017-11-12T04:23:21Z,42.805,6.029,13.2939,4.59957,2472.002,2017-11-12T06:24:48Z
2017-11-12T04:26:24Z,42.805,6.029,13.2939,4.59959,2471.987,2017-11-12T06:27:51Z
2017-11-12T04:29:27Z,42.805,6.029,13.2939,4.59956,2471.979,2017-11-12T06:30:54Z
2017-11-12T04:32:30Z,42.805,6.029,13.2940,4.59956,2471.987,2017-11-12T06:33:57Z
2017-11-12T04:35:33Z,42.805,6.029,13.2933,4.59956,2471.987,2017-11-12T06:37:00Z
2017-11-12T04:38:36Z,42.805,6.029,13.2936,4.59956,2472.002,2017-11-12T06:40:03Z
2017-11-12T04:41:39Z,42.805,6.029,13.2939,4.59957,2471.987,2017-11-12T06:43:06Z
2017-11-12T04:44:42Z,42.805,6.029,13.2936,4.59957,2471.964,2017-11-12T06:46:09Z
2017-11-12T04:47:44Z,42.805,6.029,13.2939,4.59956,2471.964,2017-11-12T06:49:12Z
2017-11-12T04:50:47Z,42.805,6.029,13.2936,4.59956,2472.01,2017-11-12T06:52:14Z
2017-11-12T04:53:50Z,42.805,6.029,13.2937,4.59957,2472.016,2017-11-12T06:55:17Z
2017-11-12T04:56:53Z,42.805,6.029,13.2936,4.59958,2472.002,2017-11-12T06:58:20Z
2017-11-12T04:59:56Z,42.805,6.029,13.2939,4.59957,2472.01,2017-11-12T07:01:23Z
2017-11-12T05:02:59Z,42.805,6.029,13.2933,4.59956,2471.979,2017-11-12T07:04:26Z
2017-11-12T05:06:02Z,42.805,6.029,13.2939,4.59956,2471.987,2017-11-12T07:07:29Z
2017-11-12T05:09:05Z,42.805,6.029,13.2935,4.59957,2472.002,2017-11-12T07:10:32Z
2017-11-12T05:12:08Z,42.805,6.029,13.2936,4.59956,2471.979,2017-11-12T07:13:35Z
2017-11-12T05:15:10Z,42.805,6.029,13.2933,4.59957,2472.002,2017-11-12T07:16:38Z
2017-11-12T05:18:13Z,42.805,6.029,13.2933,4.59957,2471.979,2017-11-12T07:19:40Z
2017-11-12T05:21:16Z,42.805,6.029,13.2934,4.59956,2471.979,2017-11-12T07:22:43Z
2017-11-12T05:24:19Z,42.805,6.029,13.2939,4.59958,2472.002,2017-11-12T07:25:46Z
2017-11-12T05:27:22Z,42.805,6.029,13.2936,4.59956,2472.002,2017-11-12T07:28:49Z
2017-11-12T05:30:25Z,42.805,6.029,13.2936,4.59957,2472.002,2017-11-12T07:31:52Z
2017-11-12T05:33:28Z,42.805,6.029,13.2941,4.59956,2472.002,2017-11-12T07:34:55Z
2017-11-12T05:36:31Z,42.805,6.029,13.2934,4.59957,2472.002,2017-11-12T07:37:58Z
2017-11-12T05:39:34Z,42.805,6.029,13.2938,4.59955,2471.987,2017-11-12T07:41:01Z
2017-11-12T05:42:37Z,42.805,6.029,13.2936,4.59956,2472.002,2017-11-12T07:44:04Z
2017-11-12T05:45:39Z,42.805,6.029,13.2935,4.59956,2471.964,2017-11-12T07:47:06Z
2017-11-12T05:48:42Z,42.805,6.029,13.2937,4.59956,2472.002,2017-11-12T07:50:09Z
2017-11-12T05:51:45Z,42.805,6.029,13.2933,4.59956,2472.002,2017-11-12T07:53:12Z
2017-11-12T05:54:48Z,42.805,6.029,13.2935,4.59956,2471.964,2017-11-12T07:56:15Z
2017-11-12T05:57:51Z,42.805,6.029,13.2936,4.59958,2471.957,2017-11-12T07:59:18Z
2017-11-12T06:00:54Z,42.805,6.029,13.2935,4.59957,2471.987,2017-11-12T08:02:21Z
2017-11-12T06:03:57Z,42.805,6.029,13.2940,4.59957,2471.987,2017-11-12T08:05:24Z
2017-11-12T06:07:00Z,42.805,6.029,13.2938,4.59957,2472.002,2017-11-12T08:08:27Z
2017-11-12T06:10:03Z,42.805,6.029,13.2935,4.59956,2471.979,2017-11-12T08:11:30Z
2017-11-12T06:13:05Z,42.805,6.029,13.2939,4.59957,2471.964,2017-11-12T08:14:32Z
2017-11-12T06:16:08Z,42.805,6.029,13.2936,4.59957,2471.979,2017-11-12T08:17:35Z
2017-11-12T06:19:11Z,42.805,6.029,13.2939,4.59958,2471.987,2017-11-12T08:20:38Z
2017-11-12T06:22:14Z,42.805,6.029,13.2939,4.59956,2471.979,2017-11-12T08:23:41Z
2017-11-12T06:25:17Z,42.805,6.029,13.2938,4.59958,2471.957,2017-11-12T08:26:44Z
2017-11-12T06:28:20Z,42.805,6.029,13.2936,4.59957,2471.979,2017-11-12T08:29:47Z
2017-11-12T06:31:23Z,42.805,6.029,13.2939,4.59956,2471.957,2017-11-12T08:32:50Z
2017-11-12T06:34:26Z,42.805,6.029,13.2938,4.59956,2471.964,2017-11-12T08:35:53Z
2017-11-12T06:37:29Z,42.805,6.029,13.2939,4.59957,2471.979,2017-11-12T08:38:56Z
2017-11-12T06:40:31Z,42.805,6.029,13.2936,4.59957,2471.942,2017-11-12T08:41:59Z
2017-11-12T06:43:34Z,42.805,6.029,13.2935,4.59958,2472.002,2017-11-12T08:45:01Z
2017-11-12T06:46:37Z,42.805,6.029,13.2939,4.59958,2471.957,2017-11-12T08:48:04Z
2017-11-12T06:49:40Z,42.805,6.029,13.2937,4.59958,2471.964,2017-11-12T08:51:07Z
2017-11-12T06:52:43Z,42.805,6.029,13.2936,4.59957,2471.987,2017-11-12T08:54:10Z
2017-11-12T06:55:46Z,42.805,6.029,13.2935,4.59957,2471.979,2017-11-12T08:57:13Z
2017-11-12T06:58:49Z,42.805,6.029,13.2936,4.59956,2471.957,2017-11-12T09:00:16Z
2017-11-12T07:01:52Z,42.805,6.029,13.2933,4.59956,2471.964,2017-11-12T09:03:19Z
2017-11-12T07:04:55Z,42.805,6.029,13.2938,4.59958,2471.979,2017-11-12T09:06:22Z
2017-11-12T07:07:57Z,42.805,6.029,13.2935,4.59956,2471.964,2017-11-12T09:09:25Z
2017-11-12T07:11:00Z,42.805,6.029,13.2933,4.59956,2471.957,2017-11-12T09:12:27Z
2017-11-12T07:14:03Z,42.805,6.029,13.2935,4.59956,2471.957,2017-11-12T09:15:30Z
2017-11-12T07:17:06Z,42.805,6.029,13.2938,4.59956,2472.002,2017-11-12T09:18:33Z
2017-11-12T07:20:09Z,42.805,6.029,13.2938,4.59956,2471.942,2017-11-12T09:21:36Z
2017-11-12T07:23:12Z,42.805,6.029,13.2935,4.59956,2471.979,2017-11-12T09:24:39Z
2017-11-12T07:26:15Z,42.805,6.029,13.2943,4.59956,2471.957,2017-11-12T09:27:42Z
2017-11-12T07:29:18Z,42.805,6.029,13.2940,4.59958,2471.957,2017-11-12T09:30:45Z
2017-11-12T07:32:21Z,42.805,6.029,13.2942,4.59956,2471.979,2017-11-12T09:33:48Z
2017-11-12T07:35:23Z,42.805,6.029,13.2935,4.59958,2471.957,2017-11-12T09:36:51Z
2017-11-12T07:38:26Z,42.805,6.029,13.2939,4.59957,2471.934,2017-11-12T09:39:53Z
2017-11-12T07:41:29Z,42.805,6.029,13.2933,4.59955,2471.957,2017-11-12T09:42:56Z
2017-11-12T07:44:32Z,42.805,6.029,13.2935,4.59956,2471.957,2017-11-12T09:45:59Z
2017-11-12T07:47:35Z,42.805,6.029,13.2935,4.59956,2471.942,2017-11-12T09:49:02Z
2017-11-12T07:50:38Z,42.805,6.029,13.2935,4.59957,2471.964,2017-11-12T09:52:05Z
2017-11-12T07:53:41Z,42.805,6.029,13.2938,4.59957,2471.964,2017-11-12T09:55:08Z
2017-11-12T07:56:44Z,42.805,6.029,13.2939,4.59956,2471.979,2017-11-12T09:58:11Z
2017-11-12T07:59:47Z,42.805,6.029,13.2935,4.59956,2471.964,2017-11-12T10:01:14Z
2017-11-12T08:02:50Z,42.805,6.029,13.2938,4.59956,2471.934,2017-11-12T10:04:17Z
2017-11-12T08:05:52Z,42.805,6.029,13.2939,4.59959,2471.971,2017-11-12T10:07:19Z
2017-11-12T08:08:55Z,42.805,6.029,13.2935,4.59956,2471.964,2017-11-12T10:10:22Z
2017-11-12T08:11:58Z,42.805,6.029,13.2940,4.59956,2471.934,2017-11-12T10:13:25Z
2017-11-12T08:15:01Z,42.805,6.029,13.2935,4.59955,2471.934,2017-11-12T10:16:28Z
2017-11-12T08:18:04Z,42.805,6.029,13.2935,4.59956,2471.957,2017-11-12T10:19:31Z
2017-11-12T08:21:07Z,42.805,6.029,13.2939,4.59958,2471.957,2017-11-12T10:22:34Z
2017-11-12T08:24:10Z,42.805,6.029,13.2941,4.59956,2471.957,2017-11-12T10:25:37Z
2017-11-12T08:27:13Z,42.805,6.029,13.2937,4.59956,2471.942,2017-11-12T10:28:40Z
2017-11-12T08:30:16Z,42.805,6.029,13.2940,4.59955,2471.957,2017-11-12T10:31:43Z
2017-11-12T08:33:18Z,42.805,6.029,13.2932,4.59956,2471.979,2017-11-12T10:34:46Z
2017-11-12T08:36:21Z,42.805,6.029,13.2937,4.59956,2471.942,2017-11-12T10:37:48Z
2017-11-12T08:39:24Z,42.805,6.029,13.2934,4.59956,2471.942,2017-11-12T10:40:51Z
2017-11-12T08:42:27Z,42.805,6.029,13.2938,4.59956,2471.964,2017-11-12T10:43:54Z
2017-11-12T08:45:30Z,42.805,6.029,13.2939,4.59956,2471.957,2017-11-12T10:46:57Z
2017-11-12T08:48:33Z,42.805,6.029,13.2933,4.59956,2471.957,2017-11-12T10:50:00Z
2017-11-12T08:51:36Z,42.805,6.029,13.2935,4.59956,2471.957,2017-11-12T10:53:03Z
2017-11-12T08:54:39Z,42.805,6.029,13.2937,4.59956,2471.942,2017-11-12T10:56:06Z
2017-11-12T08:57:42Z,42.805,6.029,13.2936,4.59956,2471.957,2017-11-12T10:59:09Z
2017-11-12T09:00:45Z,42.805,6.029,13.2935,4.59958,2471.919,2017-11-12T11:02:12Z
2017-11-12T09:03:47Z,42.805,6.029,13.2936,4.59957,2471.934,2017-11-12T11:05:15Z
2017-11-12T09:06:50Z,42.805,6.029,13.2939,4.59957,2471.964,2017-11-12T11:08:17Z
2017-11-12T09:09:53Z,42.805,6.029,13.2935,4.59956,2471.934,2017-11-12T11:11:20Z
2017-11-12T09:12:56Z,42.805,6.029,13.2935,4.59957,2471.942,2017-11-12T11:14:23Z
2017-11-12T09:15:59Z,42.805,6.029,13.2937,4.59956,2471.979,2017-11-12T11:17:26Z
2017-11-12T09:19:02Z,42.805,6.029,13.2937,4.59956,2471.942,2017-11-12T11:20:29Z
2017-11-12T09:22:05Z,42.805,6.029,13.2935,4.59956,2471.942,2017-11-12T11:23:32Z
2017-11-12T09:25:08Z,42.805,6.029,13.2933,4.59957,2471.942,2017-11-12T11:26:35Z
2017-11-12T09:28:11Z,42.805,6.029,13.2939,4.59957,2471.949,2017-11-12T11:29:38Z
2017-11-12T09:31:14Z,42.805,6.029,13.2938,4.59957,2472.002,2017-11-12T11:32:41Z
2017-11-12T09:34:16Z,42.805,6.029,13.2935,4.59957,2471.964,2017-11-12T11:35:43Z
2017-11-12T09:37:19Z,42.805,6.029,13.2939,4.59956,2471.942,2017-11-12T11:38:46Z
2017-11-12T09:40:22Z,42.805,6.029,13.2939,4.59956,2472.002,2017-11-12T11:41:49Z
2017-11-12T09:43:25Z,42.805,6.029,13.2938,4.59958,2471.979,2017-11-12T11:44:52Z
2017-11-12T09:46:28Z,42.805,6.029,13.2937,4.59956,2471.942,2017-11-12T11:47:55Z
2017-11-12T09:49:31Z,42.805,6.029,13.2938,4.59956,2471.957,2017-11-12T11:50:58Z
2017-11-12T09:52:34Z,42.805,6.029,13.2937,4.59956,2471.964,2017-11-12T11:54:01Z
2017-11-12T09:55:37Z,42.805,6.029,13.2935,4.59955,2471.964,2017-11-12T11:57:04Z
2017-11-12T09:58:40Z,42.805,6.029,13.2935,4.59956,2471.979,2017-11-12T12:00:07Z
2017-11-12T10:01:43Z,42.805,6.029,13.2936,4.59957,2471.979,2017-11-12T12:03:10Z
2017-11-12T10:04:45Z,42.805,6.029,13.2935,4.59956,2471.979,2017-11-12T12:06:12Z
2017-11-12T10:07:48Z,42.805,6.029,13.2933,4.59956,2471.979,2017-11-12T12:09:15Z
2017-11-12T10:10:51Z,42.805,6.029,13.2937,4.59956,2471.979,2017-11-12T12:12:18Z
2017-11-12T10:13:54Z,42.805,6.029,13.2940,4.59956,2471.979,2017-11-12T12:15:21Z
2017-11-12T10:16:57Z,42.805,6.029,13.2939,4.59956,2471.964,2017-11-12T12:18:24Z
2017-11-12T10:20:00Z,42.805,6.029,13.2935,4.59956,2471.979,2017-11-12T12:21:27Z
2017-11-12T10:23:03Z,42.805,6.029,13.2939,4.59956,2471.979,2017-11-12T12:24:30Z
2017-11-12T10:26:06Z,42.805,6.029,13.2939,4.59956,2471.979,2017-11-12T12:27:33Z
2017-11-12T10:29:09Z,42.805,6.029,13.2940,4.59956,2471.979,2017-11-12T12:30:36Z
2017-11-12T10:32:12Z,42.805,6.029,13.2934,4.59958,2471.979,2017-11-12T12:33:39Z
2017-11-12T10:35:14Z,42.805,6.029,13.2935,4.59956,2472.002,2017-11-12T12:36:41Z
2017-11-12T10:38:17Z,42.805,6.029,13.2939,4.59956,2471.987,2017-11-12T12:39:44Z
2017-11-12T10:41:20Z,42.805,6.029,13.2939,4.59956,2471.987,2017-11-12T12:42:47Z
2017-11-12T10:44:23Z,42.805,6.029,13.2936,4.59956,2471.964,2017-11-12T12:45:50Z
2017-11-12T10:47:26Z,42.805,6.029,13.2935,4.59958,2471.979,2017-11-12T12:48:53Z
2017-11-12T10:50:29Z,42.805,6.029,13.2937,4.59957,2472.002,2017-11-12T12:51:56Z
2017-11-12T10:53:32Z,42.805,6.029,13.2936,4.59957,2471.979,2017-11-12T12:54:59Z
2017-11-12T10:56:35Z,42.805,6.029,13.2937,4.59961,2471.979,2017-11-12T12:58:02Z
2017-11-12T10:59:38Z,42.805,6.029,13.2938,4.59956,2471.979,2017-11-12T13:01:05Z
2017-11-12T11:02:40Z,42.805,6.029,13.2935,4.59957,2472.002,2017-11-12T13:04:08Z
2017-11-12T11:05:43Z,42.805,6.029,13.2934,4.59958,2472.002,2017-11-12T13:07:10Z
2017-11-12T11:08:46Z,42.805,6.029,13.2937,4.59957,2472.01,2017-11-12T13:10:13Z
2017-11-12T11:11:49Z,42.805,6.029,13.2935,4.59956,2471.987,2017-11-12T13:13:16Z
2017-11-12T11:14:52Z,42.805,6.029,13.2942,4.59957,2472.01,2017-11-12T13:16:19Z
2017-11-12T11:17:55Z,42.805,6.029,13.2936,4.59957,2472.024,2017-11-12T13:19:22Z
2017-11-12T11:20:58Z,42.805,6.029,13.2938,4.59957,2471.979,2017-11-12T13:22:25Z
2017-11-12T11:24:01Z,42.805,6.029,13.2935,4.59957,2471.964,2017-11-12T13:25:28Z
2017-11-12T11:27:04Z,42.805,6.029,13.2942,4.59957,2471.987,2017-11-12T13:28:31Z
2017-11-12T11:30:07Z,42.805,6.029,13.2935,4.59956,2472.002,2017-11-12T13:31:34Z
2017-11-12T11:33:09Z,42.805,6.029,13.2937,4.59956,2472.01,2017-11-12T13:34:36Z
2017-11-12T11:36:12Z,42.805,6.029,13.2939,4.59957,2472.024,2017-11-12T13:37:39Z
2017-11-12T11:39:15Z,42.805,6.029,13.2936,4.59957,2471.964,2017-11-12T13:40:42Z
2017-11-12T11:42:18Z,42.805,6.029,13.2935,4.59956,2472.01,2017-11-12T13:43:45Z
2017-11-12T11:45:21Z,42.805,6.029,13.2935,4.59958,2472.024,2017-11-12T13:46:48Z
2017-11-12T11:48:24Z,42.805,6.029,13.2935,4.59956,2472.047,2017-11-12T13:49:51Z
2017-11-12T11:51:27Z,42.805,6.029,13.2937,4.59958,2472.024,2017-11-12T13:52:54Z
2017-11-12T11:54:30Z,42.805,6.029,13.2933,4.59956,2472.047,2017-11-12T13:55:57Z
2017-11-12T11:57:33Z,42.805,6.029,13.2939,4.59957,2472.024,2017-11-12T13:59:00Z
2017-11-12T12:00:35Z,42.805,6.029,13.2938,4.59957,2472.024,2017-11-12T14:02:03Z
2017-11-12T12:03:38Z,42.805,6.029,13.2938,4.59956,2472.047,2017-11-12T14:05:05Z
2017-11-12T12:06:41Z,42.805,6.029,13.2938,4.59960,2472.055,2017-11-12T14:08:08Z
2017-11-12T12:09:44Z,42.805,6.029,13.2937,4.59958,2472.032,2017-11-12T14:11:11Z
2017-11-12T12:12:47Z,42.805,6.029,13.2935,4.59958,2472.032,2017-11-12T14:14:14Z
2017-11-12T12:15:50Z,42.805,6.029,13.2935,4.59960,2472.047,2017-11-12T14:17:17Z
2017-11-12T12:18:53Z,42.805,6.029,13.2941,4.59956,2472.055,2017-11-12T14:20:20Z
2017-11-12T12:21:56Z,42.805,6.029,13.2936,4.59957,2472.024,2017-11-12T14:23:23Z
2017-11-12T12:24:59Z,42.805,6.029,13.2939,4.59957,2472.069,2017-11-12T14:26:26Z
2017-11-12T12:28:02Z,42.805,6.029,13.2935,4.59957,2472.069,2017-11-12T14:29:29Z
2017-11-12T12:31:04Z,42.805,6.029,13.2935,4.59957,2472.069,2017-11-12T14:32:32Z
2017-11-12T12:34:07Z,42.805,6.029,13.2940,4.59957,2472.047,2017-11-12T14:35:34Z
2017-11-12T12:37:10Z,42.805,6.029,13.2940,4.59956,2472.047,2017-11-12T14:38:37Z
2017-11-12T12:40:13Z,42.805,6.029,13.2934,4.59958,2472.032,2017-11-12T14:41:40Z
2017-11-12T12:43:16Z,42.805,6.029,13.2935,4.59957,2472.069,2017-11-12T14:44:43Z
2017-11-12T12:46:19Z,42.805,6.029,13.2939,4.59958,2472.01,2017-11-12T14:47:46Z
2017-11-12T12:49:22Z,42.805,6.029,13.2938,4.59957,2472.047,2017-11-12T14:50:49Z
2017-11-12T12:52:25Z,42.805,6.029,13.2937,4.59957,2472.047,2017-11-12T14:53:52Z
2017-11-12T12:55:28Z,42.805,6.029,13.2935,4.59958,2472.069,2017-11-12T14:56:55Z
2017-11-12T12:58:31Z,42.805,6.029,13.2939,4.59956,2472.032,2017-11-12T14:59:58Z
2017-11-12T13:01:33Z,42.805,6.029,13.2935,4.59956,2472.055,2017-11-12T15:03:01Z
2017-11-12T13:04:36Z,42.805,6.029,13.2936,4.59956,2472.069,2017-11-12T15:06:03Z
2017-11-12T13:07:39Z,42.805,6.029,13.2940,4.59956,2472.092,2017-11-12T15:09:06Z
2017-11-12T13:10:42Z,42.805,6.029,13.2940,4.59956,2472.047,2017-11-12T15:12:09Z
2017-11-12T13:13:45Z,42.805,6.029,13.2938,4.59956,2472.069,2017-11-12T15:15:12Z
2017-11-12T13:16:48Z,42.805,6.029,13.2934,4.59958,2472.032,2017-11-12T15:18:15Z
2017-11-12T13:19:51Z,42.805,6.029,13.2940,4.59958,2472.055,2017-11-12T15:21:18Z
2017-11-12T13:22:54Z,42.805,6.029,13.2939,4.59957,2472.069,2017-11-12T15:24:21Z
2017-11-12T13:25:57Z,42.805,6.029,13.2937,4.59957,2472.055,2017-11-12T15:27:24Z
2017-11-12T13:29:00Z,42.805,6.029,13.2934,4.59956,2472.069,2017-11-12T15:30:27Z
2017-11-12T13:32:02Z,42.805,6.029,13.2939,4.59956,2472.055,2017-11-12T15:33:29Z
2017-11-12T13:35:05Z,42.805,6.029,13.2938,4.59957,2472.055,2017-11-12T15:36:32Z
2017-11-12T13:38:08Z,42.805,6.029,13.2939,4.59959,2472.032,2017-11-12T15:39:35Z
2017-11-12T13:41:11Z,42.805,6.029,13.2940,4.59957,2472.092,2017-11-12T15:42:38Z
2017-11-12T13:44:14Z,42.805,6.029,13.2937,4.59957,2472.047,2017-11-12T15:45:41Z
2017-11-12T13:47:17Z,42.805,6.029,13.2934,4.59956,2472.092,2017-11-12T15:48:44Z
2017-11-12T13:50:20Z,42.805,6.029,13.2934,4.59955,2472.055,2017-11-12T15:51:47Z
2017-11-12T13:53:23Z,42.805,6.029,13.2939,4.59956,2472.069,2017-11-12T15:54:50Z
2017-11-12T13:56:26Z,42.805,6.029,13.2936,4.59956,2472.092,2017-11-12T15:57:53Z
2017-11-12T13:59:29Z,42.805,6.029,13.2935,4.59957,2472.069,2017-11-12T16:00:56Z
2017-11-12T14:02:31Z,42.805,6.029,13.2939,4.59958,2472.055,2017-11-12T16:03:58Z
2017-11-12T14:05:34Z,42.805,6.029,13.2939,4.59956,2472.069,2017-11-12T16:07:01Z
2017-11-12T14:08:37Z,42.805,6.029,13.2935,4.59957,2472.032,2017-11-12T16:10:04Z
2017-11-12T14:11:40Z,42.805,6.029,13.2939,4.59956,2472.069,2017-11-12T16:13:07Z
2017-11-12T14:14:43Z,42.805,6.029,13.2937,4.59955,2472.092,2017-11-12T16:16:10Z
2017-11-12T14:17:46Z,42.805,6.029,13.2935,4.59957,2472.069,2017-11-12T16:19:13Z
2017-11-12T14:20:49Z,42.805,6.029,13.2935,4.59958,2472.069,2017-11-12T16:22:16Z
2017-11-12T14:23:52Z,42.805,6.029,13.2936,4.59956,2472.077,2017-11-12T16:25:19Z
2017-11-12T14:26:55Z,42.805,6.029,13.2933,4.59956,2472.047,2017-11-12T16:28:22Z
2017-11-12T14:29:57Z,42.805,6.029,13.2935,4.59956,2472.069,2017-11-12T16:31:25Z
2017-11-12T14:33:00Z,42.805,6.029,13.2939,4.59956,2472.055,2017-11-12T16:34:27Z
2017-11-12T14:36:03Z,42.805,6.029,13.2940,4.59956,2472.084,2017-11-12T16:37:30Z
2017-11-12T14:39:06Z,42.805,6.029,13.2939,4.59956,2472.092,2017-11-12T16:40:33Z
2017-11-12T14:42:09Z,42.805,6.029,13.2933,4.59956,2472.069,2017-11-12T16:43:36Z
2017-11-12T14:45:12Z,42.805,6.029,13.2939,4.59956,2472.092,2017-11-12T16:46:39Z
2017-11-12T14:48:15Z,42.805,6.029,13.2936,4.59957,2472.032,2017-11-12T16:49:42Z
2017-11-12T14:51:18Z,42.805,6.029,13.2939,4.59956,2472.069,2017-11-12T16:52:45Z
2017-11-12T14:54:21Z,42.805,6.029,13.2938,4.59956,2472.069,2017-11-12T16:55:48Z
2017-11-12T14:57:24Z,42.805,6.029,13.2936,4.59956,2472.084,2017-11-12T16:58:51Z